TimeCST,TemperatureF,Dew PointF,Humidity,Sea Level PressureIn,VisibilityMPH,Wind Direction,Wind SpeedMPH,Gust SpeedMPH,PrecipitationIn,Events,Conditions,WindDirDegrees,DateUTC
12:15 AM,47.7,23.9,39,29.51,10.0,SSW,15.0,-,N/A,,Clear,210,2014-01-12 06:15:00
12:35 AM,47.1,24.4,41,29.50,10.0,SSW,11.5,-,N/A,,Clear,210,2014-01-12 06:35:00
12:55 AM,46.2,24.4,42,29.48,10.0,SSW,10.4,-,N/A,,Clear,200,2014-01-12 06:55:00
1:15 AM,44.6,24.4,45,29.48,10.0,Calm,Calm,-,N/A,,Clear,0,2014-01-12 07:15:00
1:35 AM,43.7,24.4,47,29.47,10.0,Calm,Calm,-,N/A,,Clear,0,2014-01-12 07:35:00
1:55 AM,44.4,24.6,46,29.46,10.0,WSW,4.6,-,N/A,,Clear,240,2014-01-12 07:55:00
2:15 AM,45.0,25.3,46,29.47,10.0,NW,5.8,-,N/A,,Clear,310,2014-01-12 08:15:00
2:35 AM,45.5,25.3,45,29.47,10.0,SSW,6.9,-,N/A,,Clear,210,2014-01-12 08:35:00
2:55 AM,45.7,25.5,45,29.47,10.0,SW,8.1,-,N/A,,Clear,220,2014-01-12 08:55:00
3:15 AM,46.9,25.7,44,29.47,10.0,WSW,9.2,-,N/A,,Clear,240,2014-01-12 09:15:00
3:35 AM,52.7,25.7,35,29.47,10.0,West,8.1,-,N/A,,Clear,270,2014-01-12 09:35:00
3:55 AM,53.8,25.3,33,29.46,10.0,West,10.4,-,N/A,,Clear,260,2014-01-12 09:55:00
4:15 AM,53.4,25.3,34,29.46,10.0,West,9.2,-,N/A,,Clear,280,2014-01-12 10:15:00
4:35 AM,55.6,25.5,31,29.45,10.0,WNW,16.1,20.7,N/A,,Clear,290,2014-01-12 10:35:00
4:55 AM,55.4,25.5,32,29.47,10.0,West,12.7,-,N/A,,Clear,280,2014-01-12 10:55:00
5:15 AM,54.5,25.5,33,29.48,10.0,WNW,8.1,-,N/A,,Clear,300,2014-01-12 11:15:00
5:35 AM,49.8,26.6,41,29.48,10.0,Calm,Calm,-,N/A,,Clear,0,2014-01-12 11:35:00
5:55 AM,48.4,27.0,43,29.49,10.0,North,10.4,-,N/A,,Clear,360,2014-01-12 11:55:00
6:15 AM,50.2,27.5,42,29.49,10.0,NNW,8.1,-,N/A,,Clear,330,2014-01-12 12:15:00
6:35 AM,48.7,28.4,45,29.49,10.0,NW,5.8,-,N/A,,Clear,310,2014-01-12 12:35:00
6:55 AM,46.2,28.6,50,29.49,10.0,WNW,6.9,-,N/A,,Clear,290,2014-01-12 12:55:00
7:15 AM,44.1,28.9,55,29.50,10.0,WNW,8.1,-,N/A,,Clear,290,2014-01-12 13:15:00
7:35 AM,42.3,29.1,60,29.50,10.0,WNW,5.8,-,N/A,,Clear,290,2014-01-12 13:35:00
7:55 AM,41.4,29.3,62,29.51,10.0,WNW,5.8,-,N/A,,Clear,300,2014-01-12 13:55:00
8:15 AM,40.8,29.1,63,29.51,10.0,NW,9.2,-,N/A,,Clear,320,2014-01-12 14:15:00
8:35 AM,41.5,28.9,61,29.50,10.0,NNW,15.0,-,N/A,,Clear,330,2014-01-12 14:35:00
8:55 AM,41.5,29.1,61,29.51,10.0,NNW,13.8,-,N/A,,Clear,330,2014-01-12 14:55:00
9:15 AM,41.4,29.1,62,29.51,10.0,NW,9.2,16.1,N/A,,Clear,320,2014-01-12 15:15:00
9:35 AM,41.2,29.3,63,29.52,10.0,West,4.6,-,N/A,,Scattered Clouds,280,2014-01-12 15:35:00
9:55 AM,41.5,29.3,62,29.52,10.0,NW,11.5,-,N/A,,Scattered Clouds,310,2014-01-12 15:55:00
10:15 AM,41.9,29.3,61,29.53,10.0,WNW,10.4,16.1,N/A,,Clear,300,2014-01-12 16:15:00
10:35 AM,42.8,29.3,59,29.54,10.0,WNW,11.5,-,N/A,,Clear,290,2014-01-12 16:35:00
10:55 AM,43.7,29.1,57,29.52,10.0,WNW,11.5,17.3,N/A,,Clear,300,2014-01-12 16:55:00
11:15 AM,45.5,28.8,52,29.54,10.0,NW,6.9,-,N/A,,Clear,310,2014-01-12 17:15:00
11:35 AM,46.6,27.5,47,29.53,10.0,NW,9.2,-,N/A,,Clear,310,2014-01-12 17:35:00
11:55 AM,48.0,26.6,43,29.50,10.0,NW,9.2,-,N/A,,Clear,320,2014-01-12 17:55:00
12:15 PM,48.4,26.4,42,29.51,10.0,NW,13.8,-,N/A,,Scattered Clouds,320,2014-01-12 18:15:00
12:35 PM,48.2,25.0,40,29.53,10.0,WNW,4.6,-,N/A,,Scattered Clouds,290,2014-01-12 18:35:00
12:55 PM,48.2,23.2,37,29.55,10.0,Calm,Calm,-,N/A,,Mostly Cloudy,0,2014-01-12 18:55:00
1:15 PM,48.2,22.6,37,29.54,10.0,Calm,Calm,-,N/A,,Overcast,0,2014-01-12 19:15:00
1:35 PM,48.9,23.2,36,29.54,10.0,West,3.5,-,N/A,,Overcast,280,2014-01-12 19:35:00
1:55 PM,48.6,24.4,39,29.55,10.0,West,6.9,-,N/A,,Mostly Cloudy,270,2014-01-12 19:55:00
2:15 PM,49.3,25.3,39,29.55,10.0,West,9.2,-,N/A,,Overcast,260,2014-01-12 20:15:00
2:35 PM,49.5,29.7,47,29.55,10.0,WNW,13.8,19.6,N/A,,Mostly Cloudy,290,2014-01-12 20:35:00
2:55 PM,49.1,29.7,47,29.56,10.0,West,11.5,17.3,N/A,,Scattered Clouds,280,2014-01-12 20:55:00
3:15 PM,50.2,28.9,44,29.56,10.0,WNW,16.1,19.6,N/A,,Clear,290,2014-01-12 21:15:00
3:35 PM,49.8,28.6,44,29.56,10.0,WNW,9.2,17.3,N/A,,Clear,300,2014-01-12 21:35:00
3:55 PM,50.0,26.1,39,29.57,10.0,WNW,16.1,21.9,N/A,,Clear,300,2014-01-12 21:55:00
4:15 PM,49.1,22.1,35,29.59,10.0,WNW,16.1,20.7,N/A,,Clear,290,2014-01-12 22:15:00
4:35 PM,48.0,22.5,37,29.61,10.0,West,13.8,-,N/A,,Clear,270,2014-01-12 22:35:00
4:55 PM,47.3,23.2,39,29.61,10.0,West,11.5,18.4,N/A,,Clear,280,2014-01-12 22:55:00
5:15 PM,46.0,23.0,40,29.62,10.0,WNW,10.4,-,N/A,,Clear,290,2014-01-12 23:15:00
5:35 PM,43.9,22.6,43,29.63,10.0,West,10.4,-,N/A,,Clear,280,2014-01-12 23:35:00
5:55 PM,43.9,23.9,45,29.65,10.0,WNW,13.8,-,N/A,,Clear,290,2014-01-12 23:55:00
6:15 PM,43.3,27.7,54,29.66,10.0,NW,19.6,26.5,N/A,,Clear,310,2014-01-13 00:15:00
6:35 PM,41.9,29.7,62,29.67,10.0,NNW,23.0,31.1,N/A,,Clear,330,2014-01-13 00:35:00
6:55 PM,40.8,30.0,65,29.68,10.0,NNW,17.3,26.5,N/A,,Scattered Clouds,330,2014-01-13 00:55:00
7:15 PM,40.3,29.7,66,29.69,10.0,NNW,11.5,-,N/A,,Overcast,330,2014-01-13 01:15:00
7:35 PM,39.6,29.3,67,29.71,10.0,NW,9.2,-,N/A,,Overcast,310,2014-01-13 01:35:00
7:55 PM,39.0,28.9,67,29.72,10.0,NW,8.1,-,N/A,,Mostly Cloudy,310,2014-01-13 01:55:00
8:15 PM,38.3,28.0,67,29.72,10.0,NW,6.9,-,N/A,,Scattered Clouds,310,2014-01-13 02:15:00
8:35 PM,37.4,27.0,66,29.73,10.0,WNW,8.1,-,N/A,,Scattered Clouds,290,2014-01-13 02:35:00
8:55 PM,36.7,27.9,70,29.74,10.0,WNW,8.1,-,N/A,,Scattered Clouds,300,2014-01-13 02:55:00
9:15 PM,35.1,27.9,75,29.76,10.0,West,5.8,-,N/A,,Clear,280,2014-01-13 03:15:00
9:35 PM,33.8,27.5,78,29.76,10.0,West,9.2,-,N/A,,Clear,280,2014-01-13 03:35:00
9:55 PM,34.0,28.0,79,29.76,10.0,West,9.2,-,N/A,,Scattered Clouds,280,2014-01-13 03:55:00
10:15 PM,34.2,28.2,79,29.77,10.0,West,9.2,-,N/A,,Scattered Clouds,280,2014-01-13 04:15:00
10:35 PM,34.0,28.2,79,29.78,10.0,WNW,9.2,-,N/A,,Clear,290,2014-01-13 04:35:00
10:55 PM,32.9,27.9,82,29.78,10.0,West,10.4,-,N/A,,Clear,280,2014-01-13 04:55:00
11:15 PM,33.3,28.0,81,29.78,10.0,WNW,9.2,-,N/A,,Clear,290,2014-01-13 05:15:00
11:35 PM,32.4,27.3,82,29.78,10.0,West,8.1,-,N/A,,Clear,280,2014-01-13 05:35:00
11:55 PM,32.0,27.0,82,29.78,10.0,West,9.2,-,N/A,,Clear,280,2014-01-13 05:55:00